[[{"header":{"parameterUnit":"m.s-1","parameterCategory":1,"la1":30.2991,"la2":30.254,"lo1":-89.0895,"lo2":-89.0444,"dy":0.0017,"dx":0.0017,"nx":28,"ny":28,"refTime":"2024-07-21T21:00:00:Z","depth":0,"parameterNumber":2,"parameterNumberName":"U-component_of_WINDS"},"data":[0,0,0,0,0,0,0,0,0,0,0,0,0,0,0,0,0,0,0,0,0,0,0,0,0,0,0,0,0,0,0,0,0,0,0,0,0,0,0,0,0,0,0,0,0,0,0,0,0,0,0,0,0,0,0,0,0,0,-0.6629,-0.6628,0,-0.6543,-0.6542,-0.6541,-0.6491,-0.6491,-0.6491,-0.649,-0.6404,-0.6402,-0.64,0,0,0,0,0,0,0,0,0,0,0,0,0,-0.6751,-0.6749,-0.6629,-0.6628,-0.6627,-0.6544,-0.6542,-0.6541,-0.6491,-0.6491,-0.649,-0.649,-0.6405,-0.6402,-0.64,0,0,0,0,0,0,0,0,0,0,0,0,0,-0.6685,-0.6748,-0.6629,-0.6592,-0.6587,-0.6544,-0.6542,-0.6541,-0.6491,-0.6491,-0.649,-0.649,-0.6406,-0.6403,-0.6399,-0.6387,0,0,-0.639,-0.6388,0,0,0,0,0,0,0,0,-0.6689,-0.668,-0.6598,-0.6594,-0.6589,-0.6527,-0.6554,-0.6489,-0.6491,-0.6528,-0.649,-0.649,-0.6445,-0.6439,-0.6424,-0.6383,-0.6379,-0.639,-0.6388,-0.6386,-0.6385,0,0,0,0,0,0,0,-0.6693,-0.6684,-0.6595,-0.6597,-0.6592,-0.658,-0.657,-0.6541,-0.649,-0.6524,-0.6521,-0.6511,-0.6443,-0.6427,-0.6421,-0.6378,-0.639,-0.6387,-0.6385,-0.6384,-0.6324,-0.6324,0,0,0,0,0,0,-0.6703,-0.6688,-0.6598,-0.6592,-0.6639,-0.6578,-0.6567,-0.6548,-0.649,-0.648,-0.6512,-0.6509,-0.6432,-0.6425,-0.6418,-0.64,-0.6386,-0.6383,-0.6382,-0.6323,-0.6324,-0.6324,0,0,0,0,0,0,-0.6706,-0.6696,-0.6601,-0.6639,-0.6626,-0.6576,-0.6555,-0.6546,-0.653,-0.648,-0.6471,-0.6504,-0.6432,-0.6423,-0.6395,-0.6396,-0.6382,-0.6379,-0.6323,-0.6323,-0.6324,-0.6363,0,0,0,0,0,0,-0.671,-0.6697,-0.6691,-0.6639,-0.6624,-0.6579,-0.6555,-0.6545,-0.6525,-0.6521,-0.6471,-0.6462,-0.6431,-0.64,-0.6392,-0.6392,-0.6377,-0.6323,-0.6323,-0.6324,-0.6362,-0.6365,-0.6368,0,0,0,0,0,-0.6714,-0.6706,-0.6691,-0.668,-0.6616,-0.6579,-0.657,-0.6534,-0.6525,-0.6519,-0.6487,-0.6464,-0.6398,-0.6398,-0.6388,-0.6387,-0.6322,-0.6323,-0.6324,-0.636,-0.6364,-0.6368,0,0,0,0,0,0,-0.6759,-0.6698,-0.6681,-0.6655,-0.6623,-0.6571,-0.6561,-0.654,-0.6509,-0.6507,-0.6464,-0.6453,-0.643,-0.6406,-0.6407,-0.6372,-0.6358,-0.6356,-0.6389,-0.6392,-0.6395,-0.6401,-0.6374,0,0,0,0,0,-0.6766,-0.674,-0.6689,-0.6671,-0.6656,-0.6612,-0.6594,-0.657,-0.6534,-0.652,-0.6486,-0.6453,-0.6425,-0.6408,-0.6379,-0.6359,-0.6347,-0.6353,-0.6356,-0.6359,-0.6358,-0.6347,-0.6349,-0.6326,-0.6326,-0.6326,0,0,-0.6779,-0.6743,-0.673,-0.6679,-0.6651,-0.6627,-0.66,-0.6575,-0.6557,-0.6517,-0.6488,-0.6463,-0.6423,-0.64,-0.6388,-0.6379,-0.6363,-0.636,-0.6363,-0.636,-0.6348,-0.635,-0.6352,-0.6326,-0.6326,-0.6326,0,0,-0.6791,-0.6761,-0.6743,-0.6716,-0.6674,-0.6645,-0.6641,-0.6592,-0.6574,-0.6545,-0.6515,-0.6493,-0.6445,-0.6418,-0.6399,-0.6404,-0.6381,-0.6396,-0.6411,-0.6401,-0.6403,-0.6404,-0.6406,-0.6407,-0.6395,-0.6395,-0.6395,0,-0.6814,-0.6775,-0.6737,-0.6714,-0.6693,-0.6656,-0.6638,-0.6613,-0.6564,-0.6551,-0.6542,-0.6483,-0.6453,-0.6423,-0.6425,-0.641,-0.6405,-0.64,-0.6405,-0.6406,-0.6407,-0.6408,-0.6409,-0.6397,-0.6397,-0.6397,-0.6397,0,-0.6805,-0.6778,-0.6769,-0.6723,-0.6701,-0.6681,-0.6641,-0.6624,-0.6601,-0.6574,-0.6546,-0.651,-0.6474,-0.6466,-0.6443,-0.6433,-0.6429,-0.6413,-0.6397,-0.6412,-0.6413,-0.6413,-0.64,-0.6399,-0.6399,-0.6398,0,0,-0.684,-0.6774,-0.6772,-0.6751,-0.6702,-0.6682,-0.6661,-0.6625,-0.6612,-0.658,-0.6562,-0.6523,-0.6509,-0.6487,-0.6462,-0.6452,-0.6459,-0.6438,-0.6436,-0.6443,-0.6446,-0.6458,-0.6459,-0.6445,-0.6445,-0.6445,-0.645,0,-0.6845,-0.6804,-0.6771,-0.6743,-0.6719,-0.6684,-0.6666,-0.6635,-0.661,-0.6586,-0.6558,-0.6532,-0.6515,-0.6501,-0.6491,-0.6461,-0.6459,-0.646,-0.6428,-0.6427,-0.6438,-0.6459,-0.6471,-0.6477,-0.645,-0.645,-0.645,0,-0.6845,-0.6815,-0.6784,-0.674,-0.6728,-0.6712,-0.6678,-0.6656,-0.6621,-0.6603,-0.6579,-0.6554,-0.6531,-0.6519,-0.6487,-0.6489,-0.6474,-0.6458,-0.6457,-0.6452,-0.6439,-0.6455,-0.6478,-0.6479,-0.645,-0.645,-0.645,0,-0.6874,-0.6826,-0.6802,-0.6785,-0.6732,-0.6722,-0.67,-0.6664,-0.6646,-0.6616,-0.6604,-0.6572,-0.6555,-0.6532,-0.6499,-0.6493,-0.6472,-0.6456,-0.6457,-0.6458,-0.6453,-0.6453,-0.6474,-0.6444,-0.6444,-0.6444,-0.6444,0,-0.6883,-0.6866,-0.6814,-0.6799,-0.678,-0.6742,-0.6724,-0.6699,-0.6668,-0.6648,-0.6617,-0.66,-0.6557,-0.6535,-0.651,-0.6488,-0.6481,-0.6466,-0.646,-0.6469,-0.647,-0.6458,-0.6456,-0.6445,-0.6445,-0.6445,-0.6444,0,-0.6912,-0.6876,-0.6848,-0.6801,-0.6789,-0.6776,-0.6736,-0.6721,-0.6695,-0.667,-0.6663,-0.6621,-0.6594,-0.6559,-0.652,-0.6503,-0.6485,-0.6475,-0.6496,-0.6492,-0.6495,-0.6495,-0.6507,-0.6507,-0.6479,-0.6479,-0.6479,0,-0.6919,-0.6905,-0.6857,-0.6841,-0.682,-0.6795,-0.6776,-0.6739,-0.6721,-0.6681,-0.6671,-0.6642,-0.6615,-0.6574,-0.6541,-0.6511,-0.65,-0.6507,-0.6496,-0.6506,-0.65,-0.6501,-0.65,-0.6509,-0.651,-0.651,-0.651,0,-0.6936,-0.692,-0.6893,-0.6861,-0.6839,-0.6812,-0.6784,-0.6773,-0.6731,-0.6712,-0.6684,-0.6664,-0.6625,-0.6596,-0.6563,-0.6541,-0.6519,-0.6515,-0.6513,-0.6522,-0.6535,-0.6528,-0.6504,-0.6514,-0.6514,-0.6513,-0.6513,-0.6513,-0.6954,-0.694,-0.6905,-0.6876,-0.6851,-0.6826,-0.681,-0.6782,-0.6757,-0.6722,-0.6702,-0.6675,-0.6642,-0.6595,-0.6575,-0.6553,-0.6545,-0.6543,-0.6542,-0.6542,-0.6545,-0.6539,-0.6547,-0.6547,-0.6547,-0.6547,-0.6547,0,-0.697,-0.6945,-0.692,-0.6881,-0.686,-0.6841,-0.6809,-0.6793,-0.6768,-0.6739,-0.6715,-0.6683,-0.6655,-0.6621,-0.6591,-0.6581,-0.657,-0.6574,-0.6574,-0.657,-0.6554,-0.6558,-0.6583,-0.6583,-0.6583,-0.6583,-0.6583,-0.6583,-0.6975,-0.6951,-0.6931,-0.6895,-0.6871,-0.6843,-0.6826,-0.6803,-0.678,-0.6746,-0.6722,-0.67,-0.6669,-0.6637,-0.6612,-0.6603,-0.6593,-0.66,-0.6588,-0.6574,-0.6571,-0.6568,-0.6571,-0.6599,-0.6599,-0.6605,-0.6606,-0.6606]},{"header":{"parameterUnit":"m.s-1","parameterCategory":1,"la1":30.2991,"la2":30.254,"lo1":-89.0895,"lo2":-89.0444,"dy":0.0017,"dx":0.0017,"nx":28,"ny":28,"refTime":"2024-07-21T21:00:00:Z","depth":0,"parameterNumber":3,"parameterNumberName":"V-component_of_WINDS"},"data":[0,0,0,0,0,0,0,0,0,0,0,0,0,0,0,0,0,0,0,0,0,0,0,0,0,0,0,0,0,0,0,0,0,0,0,0,0,0,0,0,0,0,0,0,0,0,0,0,0,0,0,0,0,0,0,0,0,0,3.9196,3.9196,0,3.9156,3.9156,3.9155,3.9147,3.9148,3.9148,3.9148,3.9103,3.9101,3.91,0,0,0,0,0,0,0,0,0,0,0,0,0,3.9262,3.9261,3.9196,3.9196,3.9195,3.9156,3.9156,3.9155,3.9147,3.9148,3.9148,3.9149,3.9103,3.9101,3.91,0,0,0,0,0,0,0,0,0,0,0,0,0,3.9229,3.9261,3.9197,3.9187,3.9186,3.9156,3.9156,3.9155,3.9147,3.9148,3.9148,3.9149,3.9104,3.9102,3.9099,3.9075,0,0,3.9092,3.9091,0,0,0,0,0,0,0,0,3.9231,3.9227,3.9189,3.9188,3.9186,3.9157,3.9162,3.9128,3.9147,3.9162,3.9148,3.9149,3.912,3.9117,3.9108,3.9073,3.9071,3.9092,3.9091,3.909,3.9089,0,0,0,0,0,0,0,3.9233,3.9228,3.918,3.9188,3.9187,3.9183,3.9179,3.9156,3.9138,3.916,3.916,3.9155,3.9119,3.911,3.9107,3.907,3.9092,3.909,3.9089,3.9088,3.9013,3.9013,0,0,0,0,0,0,3.9238,3.923,3.9182,3.9179,3.921,3.9182,3.9177,3.9166,3.9139,3.9135,3.9155,3.9155,3.9114,3.9109,3.9105,3.9075,3.909,3.9088,3.9086,3.9014,3.9013,3.9012,0,0,0,0,0,0,3.9239,3.9234,3.9183,3.9205,3.9198,3.918,3.9168,3.9165,3.9156,3.9135,3.9131,3.9149,3.9114,3.9108,3.9083,3.9073,3.9087,3.9084,3.9015,3.9014,3.9013,3.9014,0,0,0,0,0,0,3.9241,3.9234,3.9226,3.9204,3.9197,3.9163,3.9167,3.9164,3.9152,3.9152,3.9128,3.9124,3.9114,3.9086,3.9081,3.907,3.9083,3.9015,3.9014,3.9013,3.9015,3.9013,3.9012,0,0,0,0,0,3.9244,3.9227,3.9225,3.922,3.9186,3.9163,3.9158,3.9148,3.9151,3.9142,3.9129,3.9125,3.9075,3.9084,3.9077,3.9066,3.9016,3.9014,3.9013,3.9016,3.9014,3.9012,0,0,0,0,0,0,3.9246,3.9224,3.9222,3.9198,3.9183,3.9161,3.915,3.9146,3.9128,3.9128,3.9115,3.9109,3.9084,3.9073,3.9083,3.9041,3.9046,3.9043,3.905,3.9048,3.9046,3.9049,3.9081,0,0,0,0,0,3.9244,3.9228,3.9209,3.919,3.9182,3.9167,3.9157,3.915,3.9133,3.9125,3.911,3.9092,3.9072,3.9059,3.904,3.9013,3.9007,3.9002,3.9001,3.9,3.8997,3.8982,3.8979,3.9008,3.9008,3.9008,0,0,3.9239,3.9225,3.9216,3.919,3.9177,3.916,3.9162,3.9143,3.913,3.9122,3.9098,3.9086,3.9064,3.9038,3.9026,3.9028,3.8988,3.8998,3.8997,3.8996,3.898,3.8977,3.8975,3.9007,3.9007,3.9007,0,0,3.9222,3.921,3.9193,3.918,3.9161,3.9151,3.9147,3.9126,3.9119,3.9094,3.9088,3.9071,3.9037,3.9023,3.9011,3.8988,3.8983,3.8981,3.8974,3.8959,3.8957,3.8955,3.8946,3.8943,3.8979,3.8979,3.8979,0,3.9218,3.9193,3.9184,3.9166,3.9154,3.9148,3.913,3.9117,3.9092,3.9084,3.9086,3.9044,3.9029,3.8999,3.8994,3.8985,3.8978,3.8984,3.8958,3.8956,3.8954,3.8945,3.8942,3.8979,3.8979,3.8979,3.8979,0,3.9189,3.9171,3.9159,3.9137,3.9124,3.9106,3.9093,3.908,3.9075,3.9064,3.9039,3.9021,3.8998,3.8991,3.8984,3.8959,3.8961,3.8961,3.8965,3.8951,3.8943,3.8939,3.8979,3.8979,3.8979,3.8979,0,0,3.9171,3.9145,3.9141,3.913,3.9109,3.9094,3.9075,3.9054,3.9044,3.9026,3.9009,3.8981,3.8981,3.8967,3.8959,3.8946,3.8929,3.8948,3.8947,3.8944,3.8899,3.8899,3.8896,3.8926,3.8925,3.8925,3.8901,0,3.9151,3.9119,3.911,3.9082,3.9065,3.9059,3.9043,3.9027,3.9016,3.8999,3.8987,3.8967,3.8969,3.8961,3.8948,3.8934,3.8919,3.8935,3.8908,3.8907,3.8914,3.8891,3.8891,3.887,3.8897,3.8897,3.8896,0,3.9123,3.9107,3.9078,3.9059,3.9051,3.9036,3.9016,3.9001,3.8982,3.8975,3.896,3.8954,3.8932,3.8938,3.8907,3.8919,3.8907,3.8898,3.8897,3.8894,3.8901,3.8887,3.8862,3.8859,3.8891,3.8892,3.8892,0,3.9113,3.9084,3.9062,3.9054,3.9031,3.9021,3.901,3.8992,3.898,3.8962,3.8954,3.8932,3.8921,3.8904,3.8891,3.8897,3.8861,3.8866,3.8854,3.8854,3.8846,3.8847,3.8819,3.884,3.884,3.884,3.884,0,3.9091,3.9073,3.9058,3.9044,3.9024,3.9013,3.8993,3.8982,3.8966,3.895,3.8943,3.8927,3.8911,3.8893,3.8883,3.8859,3.8853,3.8846,3.8844,3.8847,3.8848,3.8839,3.884,3.8839,3.8839,3.8839,3.8839,0,3.9076,3.9065,3.9041,3.9022,3.9017,3.9002,3.8985,3.8971,3.8961,3.894,3.8934,3.8917,3.8895,3.8881,3.8853,3.8846,3.8819,3.8817,3.8826,3.8825,3.8813,3.8814,3.8778,3.8773,3.8797,3.8797,3.8797,0,3.9063,3.9049,3.9029,3.9018,3.9008,3.899,3.8978,3.8967,3.8954,3.8932,3.8921,3.8899,3.8881,3.8846,3.883,3.8808,3.8805,3.8794,3.8802,3.8805,3.8804,3.8805,3.8804,3.8793,3.8793,3.8793,3.8792,0,3.904,3.9035,3.9019,3.9001,3.8987,3.8971,3.8956,3.8947,3.8932,3.8918,3.8897,3.8883,3.8855,3.8833,3.881,3.8797,3.8792,3.879,3.8786,3.8789,3.8795,3.8791,3.8822,3.8791,3.8791,3.8791,3.8791,3.8791,3.9025,3.9012,3.8996,3.8978,3.8966,3.8951,3.8937,3.8926,3.8908,3.8885,3.8879,3.8857,3.8837,3.8806,3.8793,3.8774,3.8775,3.877,3.8768,3.8767,3.8766,3.8798,3.877,3.877,3.877,3.877,3.877,0,3.9001,3.8991,3.8975,3.8954,3.8939,3.8937,3.892,3.8907,3.8888,3.8871,3.8854,3.8829,3.8807,3.879,3.8768,3.8756,3.8753,3.875,3.875,3.8747,3.8767,3.8772,3.8753,3.8753,3.8753,3.8753,3.8753,3.8753,3.8988,3.8967,3.896,3.8932,3.8921,3.89,3.889,3.8876,3.8863,3.8836,3.8819,3.8808,3.8791,3.8767,3.8747,3.8742,3.8734,3.8731,3.8726,3.8744,3.8746,3.8748,3.8753,3.873,3.873,3.8708,3.8708,3.8708]}]]